This is the latest recevied weather packets stored in our database for station/object CX5ACA-13. If no packets are shown the sender has not sent any weather packets the latest 10 day(s).
| Time | Temp. | Humidity | Pressure | Rain* | Wind** | Luminosity | Snow |
|---|---|---|---|---|---|---|---|
| 1778050326 | 19.44° C | 96% | 1013.7 hPa | 0 mm | - | 0 W/m² | - |
| 1778050023 | 20° C | 96% | 1013.8 hPa | 0 mm | - | 0 W/m² | - |
| 1778049719 | 19.44° C | 96% | 1013.8 hPa | 0 mm | - | 0 W/m² | - |
| 1778049417 | 19.44° C | 96% | 1014 hPa | 0 mm | - | 0 W/m² | - |
| 1778049114 | 19.44° C | 96% | 1014 hPa | 0 mm | - | 0 W/m² | - |
| 1778048812 | 19.44° C | 96% | 1014.1 hPa | 0 mm | - | 0 W/m² | - |
| 1778048509 | 19.44° C | 96% | 1014.2 hPa | 0 mm | - | 0 W/m² | - |
| 1778048205 | 19.44° C | 96% | 1014.3 hPa | 0 mm | - | 0 W/m² | - |
| 1778047903 | 19.44° C | 96% | 1014.4 hPa | 0 mm | - | 0 W/m² | - |
| 1778047601 | 19.44° C | 96% | 1014.7 hPa | 0 mm | - | 0 W/m² | - |
| 1778047298 | 19.44° C | 96% | 1014.7 hPa | 0 mm | - | 0 W/m² | - |
| 1778046995 | 19.44° C | 96% | 1015 hPa | 0 mm | - | 0 W/m² | - |
| 1778046691 | 19.44° C | 96% | 1015.1 hPa | 0 mm | - | 0 W/m² | - |
| 1778046389 | 18.89° C | 96% | 1015.1 hPa | 0 mm | - | 0 W/m² | - |
| 1778046085 | 18.89° C | 96% | 1015.3 hPa | 0 mm | - | 0 W/m² | - |
| 1778045782 | 18.33° C | 96% | 1015.3 hPa | 0 mm | - | 0 W/m² | - |
| 1778045481 | 18.33° C | 96% | 1015.3 hPa | 0 mm | - | 0 W/m² | - |
| 1778045179 | 18.33° C | 96% | 1015.3 hPa | 0 mm | - | 0 W/m² | - |
| 1778044876 | 18.33° C | 96% | 1015.4 hPa | 0 mm | - | 0 W/m² | - |
| 1778044573 | 18.33° C | 95% | 1015.2 hPa | 0 mm | - | 0 W/m² | - |
| 1778044269 | 18.33° C | 95% | 1015.3 hPa | 0 mm | - | 0 W/m² | - |
| 1778043968 | 18.89° C | 95% | 1015.4 hPa | 0 mm | - | 0 W/m² | - |
| 1778043665 | 18.89° C | 95% | 1015.4 hPa | 0 mm | - | 0 W/m² | - |
| 1778043361 | 18.89° C | 95% | 1015.2 hPa | 0 mm | - | 0 W/m² | - |
| 1778043058 | 18.89° C | 95% | 1015.1 hPa | 0 mm | - | 0 W/m² | - |
* Rain latest hour (hover to see other rain measurements)
** Current wind speed in m/s (hover to see current wind gust speed)